Volver al catálogo

COSMOS 1289

ActivoNavegaciónLEO
NORAD 12638·PAYLOAD·🇷🇺 Russia

Lanzado Aug 6, 1981 desde Plesetsk Cosmodrome

Loading…

Próximos Pases (próximas 24 horas)

TLE

ActualizadoSource: Space-Track

Época: Sep 14, 2026, 08:01 UTC

1 12638U 81074C   26257.33409286 -.00000018  00000-0 -10033-4 0  9999
2 12638  74.0361  24.1007 0025373 312.4551  74.8567 12.54726180 65978

Sigue COSMOS 1289 en tiempo real con AllMySat

Download on the App Store